Other Public Products
Issued by NWS Grand Forks, ND

Home | Current Version | Previous Version | Text Only | Print | Product List | Glossary On
Versions: 1 2 3 4 5 6 7 8 9 10 11 12 13 14 15 16 17 18 19 20 21 22 23 24 25 26 27 28 29 30 31 32 33 34 35 36 37 38 39 40 41 42 43 44 45 46 47 48 49 50
000
FPUS83 KFGF 291210
OPUFGF
PRAIRIE TO PINES WEATHER ROUNDUP
NATIONAL WEATHER SERVICE EASTERN NORTH DAKOTA/GRAND FORKS ND
700 AM CDT FRI AUG 29 2014

 **SATELLITE DATA USED TO AUGMENT SKY COVER AT AUTOMATED STATIONS**
 *****  WEATHER ACROSS EASTERN NORTH DAKOTA  *****

CITY           SKY/WX    TMP DP  RH WIND       PRES   REMARKS
GRAND FORKS    CLOUDY    66  64  93 SW5       29.76F
6HR MIN TEMP:  66; 6HR MAX TEMP:  67;

GRAND FORKS AF CLOUDY    65  65 100 SW5       29.77F
GRAND CITY NWS   N/A     64 N/A N/A SW2         N/A
BUXTON         NOT AVBL
DEVILS LAKE    CLOUDY    66  61  82 SW10      29.75S
6HR MIN TEMP:  66; 6HR MAX TEMP:  68;

FARGO          FOG       66  65  96 S3        29.77S VSB 3/4
6HR MIN TEMP:  66; 6HR MAX TEMP:  67;

WAHPETON ARPT  CLOUDY    64  63  94 CALM      29.78S VSB 1
$$

 *****  WEATHER ACROSS CENTRAL AND WESTERN NORTH DAKOTA  *****

CITY           SKY/WX    TMP DP  RH WIND       PRES   REMARKS
JAMESTOWN      FOG       62  61  96 CALM      29.78S VSB 1
6HR MIN TEMP:  62; 6HR MAX TEMP:  65;

BISMARCK       CLOUDY    64  63  96 W7        29.82R FOG
6HR MIN TEMP:  59; 6HR MAX TEMP:  65;

MINOT          CLEAR     60  55  83 W12       29.78S
6HR MIN TEMP:  60; 6HR MAX TEMP:  71;

MINOT AFB      PTCLDY    58  58  99 NW13      29.79R
6HR MIN TEMP:  58; 6HR MAX TEMP:  69;

GARRISON         N/A     59  58  96 NW10      29.81R
6HR MIN TEMP:  59; 6HR MAX TEMP:  66;

WILLISTON      MOCLDY    60  56  86 NW10      29.91R
6HR MIN TEMP:  60; 6HR MAX TEMP:  69; 6HR PCP:  0.02;

DICKINSON      MOCLDY    61  56  83 NW7       29.88R
6HR MIN TEMP:  57; 6HR MAX TEMP:  63;

HETTINGER      PTCLDY    60  55  83 N15       29.87R
6HR MIN TEMP:  53; 6HR MAX TEMP:  63;

$$

 *****  OTHER OBSERVATIONS NORTHEAST NORTH DAKOTA  *****

CITY           SKY/WX    TMP DP  RH WIND       PRES   REMARKS
WALHALLA         N/A     66  66 100 S6        29.75F
LANGDON        CLOUDY    66  64  94 S10       29.76S
CAVALIER       CLOUDY    66  64  94 S6        29.75F FOG
GRAFTON        CLOUDY    64  64 100 CALM      29.76F
CANDO          CLOUDY    64  64 100 S8        29.76S
FORT TOTTEN    NOT AVBL
ROLLA          CLOUDY    64  64 100 CALM      29.77R
RUGBY          CLOUDY    63  63 100 SW6       29.74S
 ***** THE ABOVE OBSERVATIONS ARE NON NWS ARE NOT QUALITY
        CONTROLLED AND MAY MIS-REPORT RAIN FOR SNOW...
$$

 *****  OTHER OBSERVATIONS SOUTHEAST NORTH DAKOTA *****

CITY           SKY/WX    TMP DP  RH WIND       PRES   REMARKS
COOPERSTOWN    NOT AVBL
VALLEY CITY    FOG       64  64 100 CALM      29.79S VSB 1
OAKES          FOG       64  64 100 W6        29.80R VSB 1/2
GWINNER        CLOUDY    64  64 100 NW6       29.80S
SHEYENNE NWR     N/A     65  65 100 CALM      29.95
BUFFALO        NOT AVBL
WYNDMERE       NOT AVBL
 ***** THE ABOVE OBSERVATIONS ARE NON NWS ARE NOT QUALITY
       CONTROLLED AND MAY MIS-REPORT RAIN FOR SNOW...
$$

  *****  WEATHER ACROSS NORTHERN MINNESOTA  *****

CITY           SKY/WX    TMP DP  RH WIND       PRES   REMARKS
FLAG ISLAND    CLOUDY    64  61  88 S5        29.79F
WARROAD        CLOUDY    63  59  88 CALM      29.81S
ROSEAU         CLOUDY    64  59  82 CALM      29.80S
HALLOCK        CLOUDY    66  64  94 CALM      29.77F
THF RVR FALLS  CLOUDY    63  63 100 CALM      29.79S
6HR MIN TEMP:  63; 6HR MAX TEMP:  64;

HALSTAD          N/A     64  63  94 CALM        N/A
FOSSTON        CLOUDY    63  61  94 CALM      29.81R FOG
BAUDETTE       CLOUDY    63  61  93 VRB3      29.80F
6HR MIN TEMP:  62; 6HR MAX TEMP:  65;

WASKISH        CLOUDY    64  63  94 CALM      29.82S
CROOKSTON      CLOUDY    64  63  94 CALM      29.78S
$$
  *****  WEATHER ACROSS CENTRAL AND WEST MINNESOTA  *****

CITY           SKY/WX    TMP DP  RH WIND       PRES   REMARKS
BEMIDJI        DRIZZLE   63  62  99 CALM      29.81S
PARK RAPIDS    RAIN      64  63  96 SE3       29.81S FOG
6HR MIN TEMP:  63; 6HR MAX TEMP:  64; 6HR PCP:  0.16;

WADENA         FOG       63  63 100 SE3       29.79F VSB 1/4
DETROIT LAKES  CLOUDY    64  63  94 S3        29.81S FOG
MOORHEAD       FOG       66  66 100 CALM      29.79S VSB 1/2
FERGUS FALLS   FOG       64  64 100 CALM      29.78F VSB 1/2
ELBOW LAKE     CLOUDY    64  64  99 CALM      29.77F FOG
6HR MIN TEMP:  64; 6HR MAX TEMP:  65;

MORRIS MN      RAIN      66  64  94 N3        29.77S VSB 1/4
STAPLES        CLOUDY    63  63 100 SE3       29.80S FOG
WHEATON        DRZL/FOG  63  63 100 CALM      29.79S VSB 1
$$
  *****  WEATHER ELSEWHERE ACROSS MINNESOTA  *****

CITY           SKY/WX    TMP DP  RH WIND       PRES   REMARKS
DULUTH         DRIZZLE   61  59  93 E9        29.85F FOG
6HR MIN TEMP:  60; 6HR MAX TEMP:  61; 6HR PCP: TRACE;

INTRNTL FALLS  CLOUDY    60  59  96 CALM      29.84R
6HR MIN TEMP:  59; 6HR MAX TEMP:  62;

ELY            CLOUDY    61  57  88 CALM      29.87F
CLOQUET        CLOUDY    61  61 100 E5        29.84S FOG
BRAINERD       LGT RAIN  63  63 100 CALM      29.80F FOG
6HR MIN TEMP:  62; 6HR MAX TEMP:  63; 6HR PCP: TRACE;

HIBBING        RAIN      61  58  90 E3        29.85S FOG
6HR MIN TEMP:  58; 6HR MAX TEMP:  62; 6HR PCP:  0.12;

ALEXANDRIA     CLOUDY    64  64 100 NE5       29.80F FOG
6HR MIN TEMP:  64; 6HR MAX TEMP:  65; 6HR PCP:  0.06;

SAINT CLOUD    CLOUDY    67  65  93 E8        29.78S FOG
6HR MIN TEMP:  67; 6HR MAX TEMP:  68; 6HR PCP:  1.07;

MINNEAPOLIS    CLOUDY    69  68  96 SE6       29.81R
6HR MIN TEMP:  66; 6HR MAX TEMP:  69; 6HR PCP:  0.04;

$$

  *****  WEATHER ACROSS SOUTH DAKOTA  *****

CITY           SKY/WX    TMP DP  RH WIND       PRES   REMARKS
SIOUX FALLS    CLOUDY    69  67  93 S5        29.77S
6HR MIN TEMP:  69; 6HR MAX TEMP:  73; 6HR PCP:  0.04;

BROOKINGS      NOT AVBL
WATERTOWN      FOG       65  65 100 CALM      29.78S VSB 3/4
6HR MIN TEMP:  65; 6HR MAX TEMP:  66; 6HR PCP: TRACE;

HURON          CLOUDY    67  67 100 N7        29.77S FOG
6HR MIN TEMP:  67; 6HR MAX TEMP:  69;

SISSETON         N/A     65  65 100 N5        29.77S
ABERDEEN       FOG       64  64 100 N5        29.79S VSB 1/2
6HR MIN TEMP:  64; 6HR MAX TEMP:  65;

MITCHELL       CLOUDY    68  68 100 W5        29.78R FOG
PIERRE         FOG       65  65 100 NW3       29.81S VSB 1/2
6HR MIN TEMP:  64; 6HR MAX TEMP:  66;

MOBRIDGE       FOG       63  63 100 CALM      29.80S VSB 1/4
RAPID CITY     CLEAR     61  49  64 NW8       29.90R
6HR MIN TEMP:  55; 6HR MAX TEMP:  62;

$$

  *****  SOME WEATHER IN NEARBY STATES *****

CITY           SKY/WX    TMP DP  RH WIND       PRES   REMARKS
GLASGOW MT     MOCLDY    56  54  93 NW10      30.01R
6HR MIN TEMP:  56; 6HR MAX TEMP:  62; 6HR PCP:  0.13;

GREAT FALLS MT CLEAR     48  47  96 CALM      30.07F
6HR MIN TEMP:  47; 6HR MAX TEMP:  54;

CHEYENNE WY    CLEAR     52  41  66 W9        30.11S
6HR MIN TEMP:  50; 6HR MAX TEMP:  54;

SCOTTSBLUFF NE CLEAR     50  49  96 NW7       29.99R
6HR MIN TEMP:  49; 6HR MAX TEMP:  55;

OMAHA NE       MOCLDY    72  69  90 S10       29.81R
6HR MIN TEMP:  71; 6HR MAX TEMP:  74; 6HR PCP:  0.01;

DES MOINES IA  MOCLDY    69  66  90 SE8       29.85R
6HR MIN TEMP:  68; 6HR MAX TEMP:  70; 6HR PCP:  0.29;

DAVENPORT IA   PTCLDY    69  66  90 NW5       29.93R
6HR MIN TEMP:  69; 6HR MAX TEMP:  71;

CHICAGO IL     CLOUDY    72  64  76 S8        29.98S
6HR MIN TEMP:  71; 6HR MAX TEMP:  72;

EAU CLAIRE WI  CLOUDY    60  60 100 SE7       29.85F
6HR MIN TEMP:  59; 6HR MAX TEMP:  63; 6HR PCP:  0.60;

LA CROSSE WI   CLOUDY    66  64  93 E7        29.88S
6HR MIN TEMP:  66; 6HR MAX TEMP:  67; 6HR PCP:  0.01;

$$

  *****  SOME NATIONAL WEATHER *****

CITY           SKY/WX    TMP DP  RH WIND       PRES   REMARKS


USA.gov is the U.S. government's official web portal to all federal, state and local government web resources and services.